<?xml version="1.0"?>
<gpx xmlns="http://www.topografix.com/GPX/1/1" xmlns:xsi="http://www.w3.org/2001/XMLSchema-instance" version="1.1" creator="GPX RubyGem 1.0.0 -- http://dougfales.github.io/gpx/" xsi:schemaLocation="http://www.topografix.com/GPX/1/1 http://www.topografix.com/GPX/1/1/gpx.xsd">
  <metadata>
    <name/>
    <time>2026-05-09T02:14:40+00:00</time>
    <bound minlat="90.0" minlon="180.0" maxlat="-90.0" maxlon="-180.0"/>
  </metadata>
  <trk>
    <name/>
    <trkseg>
      <trkpt lat="43.137892" lon="-1.61059">
        <time>1970-01-01T00:00:00+00:00</time>
        <ele>146.0</ele>
      </trkpt>
      <trkpt lat="43.137827" lon="-1.610715">
        <time>1970-01-01T00:00:00+00:00</time>
        <ele>146.0</ele>
      </trkpt>
      <trkpt lat="43.137674" lon="-1.610576">
        <time>1970-01-01T00:00:00+00:00</time>
        <ele>147.0</ele>
      </trkpt>
      <trkpt lat="43.137503" lon="-1.610892">
        <time>1970-01-01T00:00:00+00:00</time>
        <ele>147.0</ele>
      </trkpt>
      <trkpt lat="43.137438" lon="-1.610954">
        <time>1970-01-01T00:00:00+00:00</time>
        <ele>146.0</ele>
      </trkpt>
      <trkpt lat="43.137418" lon="-1.610878">
        <time>1970-01-01T00:00:00+00:00</time>
        <ele>146.0</ele>
      </trkpt>
      <trkpt lat="43.137351" lon="-1.61079">
        <time>1970-01-01T00:00:00+00:00</time>
        <ele>146.0</ele>
      </trkpt>
      <trkpt lat="43.137251" lon="-1.610707">
        <time>1970-01-01T00:00:00+00:00</time>
        <ele>147.0</ele>
      </trkpt>
      <trkpt lat="43.136457" lon="-1.610143">
        <time>1970-01-01T00:00:00+00:00</time>
        <ele>150.0</ele>
      </trkpt>
      <trkpt lat="43.136417" lon="-1.610115">
        <time>1970-01-01T00:00:00+00:00</time>
        <ele>150.0</ele>
      </trkpt>
      <trkpt lat="43.136049" lon="-1.609916">
        <time>1970-01-01T00:00:00+00:00</time>
        <ele>152.0</ele>
      </trkpt>
      <trkpt lat="43.135416" lon="-1.609711">
        <time>1970-01-01T00:00:00+00:00</time>
        <ele>153.0</ele>
      </trkpt>
      <trkpt lat="43.135149" lon="-1.609609">
        <time>1970-01-01T00:00:00+00:00</time>
        <ele>152.0</ele>
      </trkpt>
      <trkpt lat="43.134369" lon="-1.609237">
        <time>1970-01-01T00:00:00+00:00</time>
        <ele>155.0</ele>
      </trkpt>
      <trkpt lat="43.133697" lon="-1.608917">
        <time>1970-01-01T00:00:00+00:00</time>
        <ele>157.0</ele>
      </trkpt>
      <trkpt lat="43.133186" lon="-1.608649">
        <time>1970-01-01T00:00:00+00:00</time>
        <ele>159.0</ele>
      </trkpt>
      <trkpt lat="43.132921" lon="-1.608471">
        <time>1970-01-01T00:00:00+00:00</time>
        <ele>160.0</ele>
      </trkpt>
      <trkpt lat="43.132801" lon="-1.608333">
        <time>1970-01-01T00:00:00+00:00</time>
        <ele>161.0</ele>
      </trkpt>
      <trkpt lat="43.132717" lon="-1.608179">
        <time>1970-01-01T00:00:00+00:00</time>
        <ele>161.0</ele>
      </trkpt>
      <trkpt lat="43.132601" lon="-1.607902">
        <time>1970-01-01T00:00:00+00:00</time>
        <ele>160.0</ele>
      </trkpt>
      <trkpt lat="43.132463" lon="-1.60753">
        <time>1970-01-01T00:00:00+00:00</time>
        <ele>160.0</ele>
      </trkpt>
      <trkpt lat="43.132342" lon="-1.607143">
        <time>1970-01-01T00:00:00+00:00</time>
        <ele>163.0</ele>
      </trkpt>
      <trkpt lat="43.132187" lon="-1.607214">
        <time>1970-01-01T00:00:00+00:00</time>
        <ele>166.0</ele>
      </trkpt>
      <trkpt lat="43.132122" lon="-1.607241">
        <time>1970-01-01T00:00:00+00:00</time>
        <ele>169.0</ele>
      </trkpt>
      <trkpt lat="43.132076" lon="-1.607269">
        <time>1970-01-01T00:00:00+00:00</time>
        <ele>170.0</ele>
      </trkpt>
      <trkpt lat="43.132044" lon="-1.607366">
        <time>1970-01-01T00:00:00+00:00</time>
        <ele>169.0</ele>
      </trkpt>
      <trkpt lat="43.132034" lon="-1.607491">
        <time>1970-01-01T00:00:00+00:00</time>
        <ele>167.0</ele>
      </trkpt>
      <trkpt lat="43.132068" lon="-1.607692">
        <time>1970-01-01T00:00:00+00:00</time>
        <ele>164.0</ele>
      </trkpt>
      <trkpt lat="43.132146" lon="-1.60795">
        <time>1970-01-01T00:00:00+00:00</time>
        <ele>162.0</ele>
      </trkpt>
      <trkpt lat="43.132137" lon="-1.608023">
        <time>1970-01-01T00:00:00+00:00</time>
        <ele>162.0</ele>
      </trkpt>
      <trkpt lat="43.132082" lon="-1.608133">
        <time>1970-01-01T00:00:00+00:00</time>
        <ele>163.0</ele>
      </trkpt>
      <trkpt lat="43.131923" lon="-1.608031">
        <time>1970-01-01T00:00:00+00:00</time>
        <ele>164.0</ele>
      </trkpt>
      <trkpt lat="43.131768" lon="-1.607861">
        <time>1970-01-01T00:00:00+00:00</time>
        <ele>169.0</ele>
      </trkpt>
      <trkpt lat="43.131662" lon="-1.607772">
        <time>1970-01-01T00:00:00+00:00</time>
        <ele>173.0</ele>
      </trkpt>
      <trkpt lat="43.13148" lon="-1.607682">
        <time>1970-01-01T00:00:00+00:00</time>
        <ele>178.0</ele>
      </trkpt>
      <trkpt lat="43.131165" lon="-1.607479">
        <time>1970-01-01T00:00:00+00:00</time>
        <ele>188.0</ele>
      </trkpt>
      <trkpt lat="43.13112" lon="-1.607405">
        <time>1970-01-01T00:00:00+00:00</time>
        <ele>190.0</ele>
      </trkpt>
      <trkpt lat="43.131084" lon="-1.607245">
        <time>1970-01-01T00:00:00+00:00</time>
        <ele>194.0</ele>
      </trkpt>
      <trkpt lat="43.131037" lon="-1.607143">
        <time>1970-01-01T00:00:00+00:00</time>
        <ele>197.0</ele>
      </trkpt>
      <trkpt lat="43.13096" lon="-1.607094">
        <time>1970-01-01T00:00:00+00:00</time>
        <ele>200.0</ele>
      </trkpt>
      <trkpt lat="43.130666" lon="-1.607152">
        <time>1970-01-01T00:00:00+00:00</time>
        <ele>204.0</ele>
      </trkpt>
      <trkpt lat="43.13045" lon="-1.607122">
        <time>1970-01-01T00:00:00+00:00</time>
        <ele>209.0</ele>
      </trkpt>
      <trkpt lat="43.130417" lon="-1.607096">
        <time>1970-01-01T00:00:00+00:00</time>
        <ele>211.0</ele>
      </trkpt>
      <trkpt lat="43.130398" lon="-1.606946">
        <time>1970-01-01T00:00:00+00:00</time>
        <ele>215.0</ele>
      </trkpt>
      <trkpt lat="43.130364" lon="-1.606896">
        <time>1970-01-01T00:00:00+00:00</time>
        <ele>217.0</ele>
      </trkpt>
      <trkpt lat="43.130334" lon="-1.606886">
        <time>1970-01-01T00:00:00+00:00</time>
        <ele>218.0</ele>
      </trkpt>
      <trkpt lat="43.130144" lon="-1.606896">
        <time>1970-01-01T00:00:00+00:00</time>
        <ele>222.0</ele>
      </trkpt>
      <trkpt lat="43.130051" lon="-1.606855">
        <time>1970-01-01T00:00:00+00:00</time>
        <ele>225.0</ele>
      </trkpt>
      <trkpt lat="43.130008" lon="-1.606751">
        <time>1970-01-01T00:00:00+00:00</time>
        <ele>228.0</ele>
      </trkpt>
      <trkpt lat="43.130009" lon="-1.606688">
        <time>1970-01-01T00:00:00+00:00</time>
        <ele>229.0</ele>
      </trkpt>
      <trkpt lat="43.13003" lon="-1.60658">
        <time>1970-01-01T00:00:00+00:00</time>
        <ele>229.0</ele>
      </trkpt>
      <trkpt lat="43.130116" lon="-1.606379">
        <time>1970-01-01T00:00:00+00:00</time>
        <ele>231.0</ele>
      </trkpt>
      <trkpt lat="43.130114" lon="-1.606292">
        <time>1970-01-01T00:00:00+00:00</time>
        <ele>232.0</ele>
      </trkpt>
      <trkpt lat="43.130079" lon="-1.606253">
        <time>1970-01-01T00:00:00+00:00</time>
        <ele>233.0</ele>
      </trkpt>
      <trkpt lat="43.129925" lon="-1.606263">
        <time>1970-01-01T00:00:00+00:00</time>
        <ele>235.0</ele>
      </trkpt>
      <trkpt lat="43.129797" lon="-1.606201">
        <time>1970-01-01T00:00:00+00:00</time>
        <ele>238.0</ele>
      </trkpt>
      <trkpt lat="43.129946" lon="-1.606096">
        <time>1970-01-01T00:00:00+00:00</time>
        <ele>237.0</ele>
      </trkpt>
      <trkpt lat="43.129997" lon="-1.605978">
        <time>1970-01-01T00:00:00+00:00</time>
        <ele>238.0</ele>
      </trkpt>
      <trkpt lat="43.130052" lon="-1.605895">
        <time>1970-01-01T00:00:00+00:00</time>
        <ele>239.0</ele>
      </trkpt>
      <trkpt lat="43.130052" lon="-1.605895">
        <time>1970-01-01T00:00:00+00:00</time>
        <ele>239.0</ele>
      </trkpt>
      <trkpt lat="43.129997" lon="-1.605978">
        <time>1970-01-01T00:00:00+00:00</time>
        <ele>238.0</ele>
      </trkpt>
      <trkpt lat="43.129946" lon="-1.606096">
        <time>1970-01-01T00:00:00+00:00</time>
        <ele>237.0</ele>
      </trkpt>
      <trkpt lat="43.129797" lon="-1.606201">
        <time>1970-01-01T00:00:00+00:00</time>
        <ele>238.0</ele>
      </trkpt>
      <trkpt lat="43.129925" lon="-1.606263">
        <time>1970-01-01T00:00:00+00:00</time>
        <ele>235.0</ele>
      </trkpt>
      <trkpt lat="43.130079" lon="-1.606253">
        <time>1970-01-01T00:00:00+00:00</time>
        <ele>233.0</ele>
      </trkpt>
      <trkpt lat="43.130114" lon="-1.606292">
        <time>1970-01-01T00:00:00+00:00</time>
        <ele>232.0</ele>
      </trkpt>
      <trkpt lat="43.130116" lon="-1.606379">
        <time>1970-01-01T00:00:00+00:00</time>
        <ele>231.0</ele>
      </trkpt>
      <trkpt lat="43.13003" lon="-1.60658">
        <time>1970-01-01T00:00:00+00:00</time>
        <ele>229.0</ele>
      </trkpt>
      <trkpt lat="43.130009" lon="-1.606688">
        <time>1970-01-01T00:00:00+00:00</time>
        <ele>229.0</ele>
      </trkpt>
      <trkpt lat="43.130008" lon="-1.606751">
        <time>1970-01-01T00:00:00+00:00</time>
        <ele>228.0</ele>
      </trkpt>
      <trkpt lat="43.130051" lon="-1.606855">
        <time>1970-01-01T00:00:00+00:00</time>
        <ele>225.0</ele>
      </trkpt>
      <trkpt lat="43.130144" lon="-1.606896">
        <time>1970-01-01T00:00:00+00:00</time>
        <ele>222.0</ele>
      </trkpt>
      <trkpt lat="43.130334" lon="-1.606886">
        <time>1970-01-01T00:00:00+00:00</time>
        <ele>218.0</ele>
      </trkpt>
      <trkpt lat="43.130364" lon="-1.606896">
        <time>1970-01-01T00:00:00+00:00</time>
        <ele>217.0</ele>
      </trkpt>
      <trkpt lat="43.130398" lon="-1.606946">
        <time>1970-01-01T00:00:00+00:00</time>
        <ele>215.0</ele>
      </trkpt>
      <trkpt lat="43.130417" lon="-1.607096">
        <time>1970-01-01T00:00:00+00:00</time>
        <ele>211.0</ele>
      </trkpt>
      <trkpt lat="43.13045" lon="-1.607122">
        <time>1970-01-01T00:00:00+00:00</time>
        <ele>209.0</ele>
      </trkpt>
      <trkpt lat="43.130666" lon="-1.607152">
        <time>1970-01-01T00:00:00+00:00</time>
        <ele>204.0</ele>
      </trkpt>
      <trkpt lat="43.13096" lon="-1.607094">
        <time>1970-01-01T00:00:00+00:00</time>
        <ele>200.0</ele>
      </trkpt>
      <trkpt lat="43.131037" lon="-1.607143">
        <time>1970-01-01T00:00:00+00:00</time>
        <ele>197.0</ele>
      </trkpt>
      <trkpt lat="43.131084" lon="-1.607245">
        <time>1970-01-01T00:00:00+00:00</time>
        <ele>194.0</ele>
      </trkpt>
      <trkpt lat="43.13112" lon="-1.607405">
        <time>1970-01-01T00:00:00+00:00</time>
        <ele>190.0</ele>
      </trkpt>
      <trkpt lat="43.131165" lon="-1.607479">
        <time>1970-01-01T00:00:00+00:00</time>
        <ele>188.0</ele>
      </trkpt>
      <trkpt lat="43.13148" lon="-1.607682">
        <time>1970-01-01T00:00:00+00:00</time>
        <ele>178.0</ele>
      </trkpt>
      <trkpt lat="43.131662" lon="-1.607772">
        <time>1970-01-01T00:00:00+00:00</time>
        <ele>173.0</ele>
      </trkpt>
      <trkpt lat="43.131768" lon="-1.607861">
        <time>1970-01-01T00:00:00+00:00</time>
        <ele>169.0</ele>
      </trkpt>
      <trkpt lat="43.131923" lon="-1.608031">
        <time>1970-01-01T00:00:00+00:00</time>
        <ele>164.0</ele>
      </trkpt>
      <trkpt lat="43.132082" lon="-1.608133">
        <time>1970-01-01T00:00:00+00:00</time>
        <ele>163.0</ele>
      </trkpt>
      <trkpt lat="43.132137" lon="-1.608023">
        <time>1970-01-01T00:00:00+00:00</time>
        <ele>162.0</ele>
      </trkpt>
      <trkpt lat="43.132146" lon="-1.60795">
        <time>1970-01-01T00:00:00+00:00</time>
        <ele>162.0</ele>
      </trkpt>
      <trkpt lat="43.132068" lon="-1.607692">
        <time>1970-01-01T00:00:00+00:00</time>
        <ele>164.0</ele>
      </trkpt>
      <trkpt lat="43.132034" lon="-1.607491">
        <time>1970-01-01T00:00:00+00:00</time>
        <ele>167.0</ele>
      </trkpt>
      <trkpt lat="43.132044" lon="-1.607366">
        <time>1970-01-01T00:00:00+00:00</time>
        <ele>169.0</ele>
      </trkpt>
      <trkpt lat="43.132076" lon="-1.607269">
        <time>1970-01-01T00:00:00+00:00</time>
        <ele>170.0</ele>
      </trkpt>
      <trkpt lat="43.132122" lon="-1.607241">
        <time>1970-01-01T00:00:00+00:00</time>
        <ele>169.0</ele>
      </trkpt>
      <trkpt lat="43.132187" lon="-1.607214">
        <time>1970-01-01T00:00:00+00:00</time>
        <ele>166.0</ele>
      </trkpt>
      <trkpt lat="43.132342" lon="-1.607143">
        <time>1970-01-01T00:00:00+00:00</time>
        <ele>163.0</ele>
      </trkpt>
      <trkpt lat="43.132463" lon="-1.60753">
        <time>1970-01-01T00:00:00+00:00</time>
        <ele>160.0</ele>
      </trkpt>
      <trkpt lat="43.132601" lon="-1.607902">
        <time>1970-01-01T00:00:00+00:00</time>
        <ele>160.0</ele>
      </trkpt>
      <trkpt lat="43.132717" lon="-1.608179">
        <time>1970-01-01T00:00:00+00:00</time>
        <ele>161.0</ele>
      </trkpt>
      <trkpt lat="43.132801" lon="-1.608333">
        <time>1970-01-01T00:00:00+00:00</time>
        <ele>161.0</ele>
      </trkpt>
      <trkpt lat="43.132921" lon="-1.608471">
        <time>1970-01-01T00:00:00+00:00</time>
        <ele>160.0</ele>
      </trkpt>
      <trkpt lat="43.133186" lon="-1.608649">
        <time>1970-01-01T00:00:00+00:00</time>
        <ele>159.0</ele>
      </trkpt>
      <trkpt lat="43.133697" lon="-1.608917">
        <time>1970-01-01T00:00:00+00:00</time>
        <ele>157.0</ele>
      </trkpt>
      <trkpt lat="43.134369" lon="-1.609237">
        <time>1970-01-01T00:00:00+00:00</time>
        <ele>155.0</ele>
      </trkpt>
      <trkpt lat="43.135149" lon="-1.609609">
        <time>1970-01-01T00:00:00+00:00</time>
        <ele>152.0</ele>
      </trkpt>
      <trkpt lat="43.135416" lon="-1.609711">
        <time>1970-01-01T00:00:00+00:00</time>
        <ele>153.0</ele>
      </trkpt>
      <trkpt lat="43.136049" lon="-1.609916">
        <time>1970-01-01T00:00:00+00:00</time>
        <ele>152.0</ele>
      </trkpt>
      <trkpt lat="43.136417" lon="-1.610115">
        <time>1970-01-01T00:00:00+00:00</time>
        <ele>150.0</ele>
      </trkpt>
      <trkpt lat="43.136457" lon="-1.610143">
        <time>1970-01-01T00:00:00+00:00</time>
        <ele>150.0</ele>
      </trkpt>
      <trkpt lat="43.137251" lon="-1.610707">
        <time>1970-01-01T00:00:00+00:00</time>
        <ele>147.0</ele>
      </trkpt>
      <trkpt lat="43.137351" lon="-1.61079">
        <time>1970-01-01T00:00:00+00:00</time>
        <ele>146.0</ele>
      </trkpt>
      <trkpt lat="43.137418" lon="-1.610878">
        <time>1970-01-01T00:00:00+00:00</time>
        <ele>146.0</ele>
      </trkpt>
      <trkpt lat="43.137438" lon="-1.610954">
        <time>1970-01-01T00:00:00+00:00</time>
        <ele>146.0</ele>
      </trkpt>
      <trkpt lat="43.137503" lon="-1.610892">
        <time>1970-01-01T00:00:00+00:00</time>
        <ele>147.0</ele>
      </trkpt>
      <trkpt lat="43.137674" lon="-1.610576">
        <time>1970-01-01T00:00:00+00:00</time>
        <ele>147.0</ele>
      </trkpt>
      <trkpt lat="43.137827" lon="-1.610715">
        <time>1970-01-01T00:00:00+00:00</time>
        <ele>146.0</ele>
      </trkpt>
      <trkpt lat="43.137892" lon="-1.61059">
        <time>1970-01-01T00:00:00+00:00</time>
        <ele>146.0</ele>
      </trkpt>
    </trkseg>
  </trk>
</gpx>
